Overview Statistics Trail Chart Weather Telemetry Raw packets
 

This is the latest recevied weather packets stored in our database for station/object W5GMO. If no packets are shown the sender has not sent any weather packets the latest 10 day(s).

<< 1 2 3 4 5 6 >>
Time Temp. Humidity Pressure Rain* Wind** Luminosity Snow
1788635784 28.89° C 1% 1010.8 hPa 0 mm - 668 W/m² -
1788635482 28.33° C 1% 1010.7 hPa 0 mm - 329 W/m² -
1788635181 28.33° C 1% 1010.8 hPa 0 mm - 364 W/m² -
1788634875 28.89° C 1% 1010.9 hPa 0 mm - 743 W/m² -
1788634574 28.33° C 1% 1011.1 hPa 0 mm - 352 W/m² -
1788634274 27.78° C 1% 1010.9 hPa 0 mm - 402 W/m² -
1788633969 28.33° C 1% 1010.8 hPa 0 mm - 307 W/m² -
1788633668 28.33° C 1% 1011 hPa 0 mm - 300 W/m² -
1788633367 28.89° C 1% 1011.2 hPa 0 mm - 381 W/m² -
1788633063 29.44° C 1% 1011.2 hPa 0 mm - 298 W/m² -
1788632762 29.44° C 1% 1011.3 hPa 0 mm - 338 W/m² -
1788632457 29.44° C 1% 1011.3 hPa 0 mm - 440 W/m² -
1788632156 28.89° C 1% 1011.3 hPa 0 mm - 402 W/m² -
1788631856 28.89° C 1% 1011.3 hPa 0 mm - 370 W/m² -
1788631550 28.89° C 1% 1011.5 hPa 0 mm - 323 W/m² -
1788631246 28.89° C 1% 1011.7 hPa 0 mm - 224 W/m² -
1788630945 28.89° C 1% 1011.7 hPa 0 mm - 258 W/m² -
1788630641 28.89° C 1% 1011.7 hPa 0 mm - 287 W/m² -
1788630336 28.33° C 1% 1011.9 hPa 0 mm - 258 W/m² -
1788630032 28.33° C 1% 1011.9 hPa 0 mm - 216 W/m² -
1788629729 28.33° C 1% 1011.7 hPa 0 mm - 243 W/m² -
1788629429 28.33° C 1% 1011.9 hPa 0 mm - 370 W/m² -
1788629127 28.89° C 1% 1012 hPa 0 mm - 393 W/m² -
1788628823 28.89° C 1% 1012 hPa 0 mm - 341 W/m² -
1788628519 28.89° C 1% 1012 hPa 0 mm - 382 W/m² -

* Rain latest hour (hover to see other rain measurements)
** Current wind speed in m/s (hover to see current wind gust speed)